Regional Weather Roundup
Issued by NWS

Home | Current Version | Previous Version | Text Only | Print | Product List | Glossary Off
Versions: 1 2 3 4 5 6 7 8 9 10 11 12 13 14 15 16 17 18 19 20 21 22 23 24 25 26 27 28 29 30 31 32 33 34 35 36 37 38 39 40 41 42 43 44 45 46 47 48 49 50

986
ASUS45 KSLC 281710
RWRUT

UTAH REGIONAL WEATHER ROUNDUP
NATIONAL WEATHER SERVICE SALT LAKE CITY UT
1100 AM MDT WED SEP 28 2016

UTZ001>011-023>025-281800-

NORTHERN UTAH

CITY           SKY/WX    TMP DP  RH WIND       PRES   REMARKS
BRIGHAM CITY     N/A     63  50  61 CALM      30.21S
DUGWAY         SUNNY     67  51  54 CALM      30.22S
HILL AFB       SUNNY     67  46  47 SE12      30.23R
LOGAN          SUNNY     59  50  72 VRB6      30.22F
OGDEN          SUNNY     68  47  46 S5        30.21R
PROVO AIRPORT  SUNNY     63  48  59 CALM      30.24S
SALT LAKE CITY SUNNY     70  48  45 CALM      30.20S
VERNAL         SUNNY     62  47  57 SE6       30.32S
WENDOVER       SUNNY     63  45  51 E7        30.21S
HEBER CITY     SUNNY     57  43  58 CALM      30.29S
WEST JORDAN    SUNNY     69  46  42 SE10      30.22S

$$

UTZ012>022-026-027-281800-

SOUTHERN/CENTRAL UTAH

CITY           SKY/WX    TMP DP  RH WIND       PRES   REMARKS
BLANDING       SUNNY     67  36  31 CALM      30.39S
BRYCE CANYON   CLOUDY    57  36  45 CALM      30.39R
CEDAR CITY     CLOUDY    66  39  37 N5        30.25S
DELTA          SUNNY     68  41  37 NE5       30.22F
MILFORD        MOSUNNY   63  40  42 S7        30.23S
MOAB/CYNLANDS  SUNNY     72  37  28 SE5       30.22S
PRICE          SUNNY     67  38  34 CALM      30.30S
ST GEORGE      CLOUDY    72  43  35 NW3       30.14S

$$

REGIONAL REPORTS     COLORADO/ARIZONA

CITY           SKY/WX    TMP DP  RH WIND       PRES   REMARKS
CRAIG, CO      SUNNY     62  37  39 VRB5      30.34F
GRAND JUNCTION SUNNY     72  35  25 SE8       30.26F
RIFLE          SUNNY     63  40  42 VRB3      30.31F
MONTROSE       SUNNY     67  36  31 NW3       30.33F
CORTEZ         SUNNY     68  40  35 SW8       30.32S
PAGE, AZ       MOSUNNY   72  41  32 CALM      30.21R
GRAND CANYON   PTSUNNY   63  45  51 SE10G18   30.33R
KINGMAN        MOSUNNY   76  47  35 CALM      30.12S
FLAGSTAFF      CLOUDY    51  49  92 NE7       30.36R

$$

REGIONAL REPORTS    NEVADA/IDAHO/WYOMING

CITY           SKY/WX    TMP DP  RH WIND       PRES   REMARKS
LAS VEGAS, NV  MOSUNNY   80  47  31 CALM      30.05S
ELY            SUNNY     67  33  28 VRB3      30.27F
ELKO           SUNNY     65  38  36 NE6       30.19F
POCATELLO, ID  SUNNY     63  47  55 NE5       30.21F
BURLEY         SUNNY     63  49  60 E12       30.15F
EVANSTON, WY   SUNNY     62  37  39 E8        30.37S
ROCK SPRINGS   SUNNY     62  40  44 VRB3      30.39S

$$




USA.gov is the U.S. government's official web portal to all federal, state and local government web resources and services.